Main page
METAR-TAF:

METAR-TAF

Airports :

Asaluyeh, Iran

Persian Gulf Airport

latitude: 27-22-46N, longitude: 52-44-15E, elevation: 8 m

Current weather observation

The report was made 1 hour and 34 minutes ago, at 18:00 UTC
Calm wind
Temperature 18°C
Humidity 68%
Pressure 1017 hPa
Visibility 10 km or more
Few clouds at a height of 3500 ft
Scattered clouds at a height of 9000 ft

METAR: OIBP 171800Z 00000KT 9999 FEW035 SCT090 18/12 Q1017 A3004

Time: 23:04 (19:34 UTC)


TAF: missing

Weather observations and forecasts of more than 4000 airports (METAR and TAF reports).

The available stations are represented by yellow and red dots on the map.

Hover mouse over dot to see the name of the station.

Then click to see weather observations and forecasts.

To change the map : click on the green buttons with a black cross to zoom in, on the green button with a dash to zoom out, or on the green arrows for adjacent maps.


METAR-TAF: